Regional Weather Roundup
Issued by NWS Pendleton, OR

Home | Current Version | Previous Version | Text Only | Print | Product List | Glossary On
Versions: 1 2 3 4 5 6 7 8 9 10 11 12 13 14 15 16 17 18 19 20 21 22 23 24 25 26 27 28 29 30 31 32 33 34 35 36 37 38 39 40 41 42 43 44 45 46 47 48 49 50
000
ASUS46 KPDT 210410
RWRPDT
PENDLETON REGIONAL WEATHER ROUNDUP
NATIONAL WEATHER SERVICE PENDLETON OREGON
900 PM PDT WED SEP 20 2017

NOTE: FAIR INDICATES FEW OR NO CLOUDS BELOW 12,000 FEET WITH NO
SIGNIFICANT WEATHER AND/OR OBSTRUCTIONS TO VISIBILITY.

# INDICATES UNOFFICIAL STATION AND DATA

WAZ520-210510-
EAST SLOPES OF WASHINGTON CASCADES

CITY            SKY/WX      TMP DP  RH  WIND    PRES   REMARKS
#BULLFROG       N/A         47  39  74  SW3     N/A
#CLE ELUM HS    N/A         46  39  76  W3      29.72R
#CLE ELUM LAKE  N/A         42  38  86  CALM    29.76R
#EASTON DOT     N/A         42  40  93  N1      N/A
#ELK HTS DOT    N/A         47  46  96  W6      N/A
#GLENWOOD       N/A         37  35  92  CALM    29.78R
#NELSON 3SW     N/A         44  37  76  CALM    29.97R
#NILE           N/A         40  36  85  CALM    29.04R
#TEANAWAY 4NE   N/A         43  38  82  N3      N/A
#TROUT LAKE 1NE N/A         41  38  89  CALM    29.79R
#TROUT LAKE 1E  N/A         43  39  86  CALM    29.80R
$$

WAZ521-210510-
SIMCOE HIGHLANDS

CITY            SKY/WX      TMP DP  RH  WIND    PRES   REMARKS
#BICKLETON HS   N/A         41  37  86  W13     29.74R WCI 34
#CENTERVILLE 1SWN/A         43  39  86  W6      29.75R
#GOLDENDALE 1NE N/A         46  38  73  CALM    N/A
#GOLDENDALE 4W  N/A         45  32  60  W2      29.82R
#GOODNOE HILLS  N/A         47  43  86  NW10    N/A
#LYLE 6NE       N/A         45  43  93  SW6     29.80R
#PITT 4SE       N/A         40  39  96  W2      29.82R
$$

WAZ026-210510-
KITTITAS VALLEY

CITY            SKY/WX      TMP DP  RH  WIND    PRES   REMARKS
ELLENSBURG AP   PTCLDY      47  38  71  NW12    29.73R WCI 42
#ELLENSBURG CWU N/A         48  38  68  N6      29.68R
#ELLENSBURG 3NE N/A         46  38  73  N7      27.82R
#ELLENSBURG 1E  N/A         48  37  65  W1      29.77R
#KITTITAS 3S    N/A         44  37  76  S1      29.72R
#MANASTASH RDG  N/A         44  43  96  N3      N/A
#ROCKY CYN DOT  N/A         49  34  56  W14     N/A    WCI 44
#RYEGRASS DOT   N/A         44  33  65  S14     N/A    WCI 37
$$

WAZ027-210510-
YAKIMA VALLEY

CITY            SKY/WX      TMP DP  RH  WIND    PRES   REMARKS
SUNNYSIDE AP    CLEAR       43  41  93  CALM    29.74R
YAKIMA AIRPORT  CLEAR       47  40  76  W5      29.74R
YAKIMA-VAGABOND CLEAR       50  35  56  N5      29.72R
#DONALD 2NE     N/A         52  20  28  W6      29.74R
#GRANDVIEW      N/A         48  41  77  CALM    29.75R
#MABTON         N/A         47  41  79  S1      29.73R
#MOXEE 2E       N/A         47  N/A N/A CALM    29.74R
#NACHES 2SW     N/A         49  39  68  W9      29.73R
#OUTLOOK DOT    N/A         47  41  79  CALM    29.70R
#PARKER DOT     N/A         50  40  68  S6      29.72R
#TERRACE HTS    N/A         48  38  68  CALM    29.70R
#TOPPENISH      N/A         49  43  80  CALM    29.66R
#I82 S UMTANUM RN/A         48  32  54  W3      N/A
#UNION GAP DOT  N/A         48  42  80  N1      29.76R
#W YAKIMA       N/A         47  38  71  CALM    29.74R
#WHITE SWAN 5E  N/A         48  40  74  CALM    29.74R
#WILEY CITY 3W  N/A         46  32  58  CALM    29.70R
#ZILLAH DOT     N/A         47  41  79  CALM    N/A
$$

WAZ028-210510-
LOWER COLUMBIA BASIN...WASHINGTON

CITY            SKY/WX      TMP DP  RH  WIND    PRES   REMARKS
PASCO           CLEAR       52  44  74  SW8     29.74R
PROSSER AWOS    N/A         46  43  89  VRB8    29.77R
RICHLAND AWOS   CLEAR       51  44  77  S6      29.73S
#BENTON CITY    N/A         47  41  79  CALM    29.64R
#CONNELL 5N     N/A         45  41  86  CALM    29.73R
#CONNELL 5NW    N/A         47  41  79  CALM    29.68R
#ELTOPIA 6NW    N/A         49  44  83  CALM    28.71R
#KAHLOTUS       N/A         50  42  74  CALM    29.73R
#KENNEWICK 3S   N/A         50  44  80  SW6     29.74R
#PATERSON       N/A         50  43  77  NW3     29.72R
#PROSSER DOT    N/A         47  42  83  CALM    29.75R
#SAGEMOOR 2W    N/A         49  44  83  CALM    29.59R
#TOUCHET 2S     N/A         53  43  69  W5      29.73R
#WEST PASCO     N/A         50  44  80  CALM    29.70R
$$

WAZ029-210510-
FOOTHILLS OF THE BLUES...WASHINGTON

CITY            SKY/WX      TMP DP  RH  WIND    PRES   REMARKS
WALLA WALLA AP  CLOUDY      54  44  69  S9      29.76R
#CLYDE 6NW      N/A         42  39  89  SW1     29.73R
#DAYTON SCHOOL  N/A         48  41  77  CALM    29.77R
#PLEASANT VIEW 1N/A         46  41  83  CALM    29.78R
#PRESCOTT       N/A         49  45  86  CALM    29.73R
#WHITMAN COLLEGEN/A         53  44  71  S3      29.80S
#WAITSBURG 6SSE N/A         50  40  68  E3      29.77R
#WALLA WALLA 5E N/A         51  45  80  S7      N/A
#WHITMAN MISSIONN/A         54  45  71  CALM    29.76R
$$

WAZ030-210510-
BLUE MOUNTAINS...WASHINGTON

CITY            SKY/WX      TMP DP  RH  WIND    PRES   REMARKS
#DIXIE 5SE      N/A         44  40  86  SW8     29.68R
$$

ORZ009-041-WAZ024-210510-
COLUMBIA RIVER GORGE

CITY            SKY/WX      TMP DP  RH  WIND    PRES   REMARKS
THE DALLES AP   PTCLDY      51  43  74  VRB5    29.79R
#CELILO DOT     N/A         53  40  61  SW6     N/A
#LYLE           N/A         52  46  80  CALM    29.80S
#MARYHILL       N/A         49  41  74  N2      N/A
#RUFUS DOT      N/A         54  N/A N/A W16     N/A
#SMITHVILLE     N/A         51  45  80  N5      29.74R

$$

ORZ510-210510-
NORTH CENTRAL OREGON

CITY            SKY/WX      TMP DP  RH  WIND    PRES   REMARKS
#ANTELOPE       N/A         45  36  70  W8      29.64R
#CHENOWITH 1W   N/A         44  40  86  W22     N/A    WCI 35
#COW CYN RST AREN/A         45  35  68  W12     N/A    WCI 39
#DUFUR          N/A         46  40  79  W2      29.75R
#DUFUR 9E       N/A         44  38  79  W6      29.84R
#GRASS VALLEY 1SN/A         46  40  79  NW2     29.82R
#KENT DOT       N/A         43  32  65  W9      N/A
#MAUPIN SCHOOL  N/A         51  40  66  W2      29.84R
#MORO SCHOOL    N/A         45  43  93  W6      29.78R
#SHANIKO 4NW    N/A         41  35  79  W8      29.76R
#TYGH VALLEY 2NEN/A         49  39  68  W3      29.78R
#WAPANITIA AIRPON/A         46  38  73  W7      29.79S
#WASCO DOT      N/A         46  40  79  W6      N/A
#WASCO 5NE      N/A         45  39  79  W7      29.76R
$$

ORZ511-210510-
CENTRAL OREGON

CITY            SKY/WX      TMP DP  RH  WIND    PRES   REMARKS
BEND AIRPORT    MOCLDY      45  36  70  CALM    29.81R
MADRAS AIRPORT  CLOUDY      N/A N/A N/A CALM    29.81R
PRINEVILLE AP   MOCLDY      43  34  70  CALM    29.81R
REDMOND AIRPORT PTCLDY      45  33  63  W7      29.79R
#ASHWOOD SCHOOL N/A         46  36  68  CALM    29.77R
#BEND 1SW       N/A         41  35  79  W2      N/A
#BEND-AWBREY    N/A         43  36  76  SW3     29.78S
#BEND-KIM LN    N/A         43  36  76  CALM    29.73R
#CULVER         N/A         44  35  70  SW3     29.67R
#CULVER 8W      N/A         44  34  68  CALM    29.82R
#LAKE BILLY CHINN/A         45  N/A N/A SW3     29.88R
#MADRAS 4S      N/A         45   4  18  SW7     29.90R
#POWELL BUTTE   N/A         43  34  70  W3      29.77R
#PRINEVILLE     N/A         45  36  70  CALM    29.85S
#PRINEVILLE 3N  N/A         45  38  76  S2      29.77R
#WARM SPRINGS   N/A         49  38  66  CALM    29.65R

$$


ORZ509-210510-
EAST SLOPES OF OREGON CASCADES

CITY            SKY/WX      TMP DP  RH  WIND    PRES   REMARKS
SISTERS AWOS    N/A         43  36  76  CALM    N/A
#CAMP SHERMAN   N/A         39  34  82  CALM    29.89S
#LA PINE 4NW    N/A         38  32  79  CALM    29.84R
#LAVA BUTTE DOT N/A         37  31  79  CALM    N/A
#SISTERS ODOT   N/A         43  35  73  CALM    N/A
#SISTERS 3N     N/A         40  32  73  NW3     29.82S
#SUNRIVER       N/A         39  34  82  E1      29.81R
#TUMALO 3W      N/A         43  34  70  W2      29.67R
#WANOGA BUTTE D N/A         32  30  92  NW5     N/A

$$

ORZ044-210510-
LOWER COLUMBIA BASIN...OREGON

CITY            SKY/WX      TMP DP  RH  WIND    PRES   REMARKS
HERMISTON       MOCLDY      51  43  74  SW9     29.75R
#BOARDMAN SCHOOLN/A         51  43  74  N8      29.74R
#BOARDMAN 8SW   N/A         48  42  80  W3      29.76R
#ECHO 8SW       N/A         51  42  71  SW6     29.77R
#I-84 EX 198 DOTN/A         51  41  68  NE8     N/A
#IONE SCHOOL    N/A         49  29  46  SW2     29.78R
#UMATILLA       N/A         51  41  68  SW5     29.68R
$$

ORZ507-210510-
NORTHERN FOOTHILLS OF THE BLUES

CITY            SKY/WX      TMP DP  RH  WIND    PRES   REMARKS
PENDLETON AIRPT CLOUDY      51  42  71  S8      29.75S
#ADAMS 3WNW     N/A         48  43  83  SW5     29.75S
#ATHENA         N/A         49  42  77  CALM    29.78S
#CAYUSE         N/A         50  42  74  CALM    29.75S
#HELIX SCHOOL   N/A         48  42  80  SW10    29.75S
#HELIX 3N       N/A         46  41  83  S10     29.73S
#HOLDMAN 5SE    N/A         50  43  77  SW7     29.76R
#HOLDMAN 6E     N/A         48  43  83  S10     29.56R
#M-F GROVE ELEM N/A         53  42  66  CALM    29.74R
#M-FREEWATER 5SEN/A         52  43  71  CALM    29.76S
#PENDLETON DNTN N/A         52  38  59  SW2     29.75S
#PDT AQUATIC CTRN/A         51  40  66  CALM    29.75S
#PDT SUNRIDGE   N/A         49  42  77  CALM    29.78R
#PENDLETON 7NW  N/A         51  43  74  SW2     N/A
#PILOT ROCK 1S  N/A         48  39  71  S6      29.78S
#PILOT ROCK     N/A         47  39  74  CALM    29.79S
#TUTUILLA       N/A         49  43  80  CALM    29.80R
#UMAPINE 2E     N/A         53  45  74  CALM    29.73R
#WESTON SCHOOL  N/A         49  40  71  NW3     29.70S

$$

ORZ508-210510-
SOUTHERN FOOTHILLS OF THE BLUES

CITY            SKY/WX      TMP DP  RH  WIND    PRES   REMARKS
LEXINGTON       CLOUDY      48  41  77  S5      29.80R
#AJAX           N/A         46  33  60  W6      29.94R
#FOSSIL SCHOOL  N/A         45  37  73  CALM    29.74R
#HEPPNER EOC    N/A         46  41  83  CALM    29.70R
#HEPPNER 4NE    N/A         43  39  86  SW2     29.76R
#LEXINGTON 2SE  N/A         48  42  80  CALM    29.73R
#MIKKALO        N/A         45  39  79  W5      29.88R
#OLEX 4N        N/A         47  41  79  SW10    29.76R
#RUGGS 5NE      N/A         42  41  96  CALM    29.94R
#RUGGS 2SW      N/A         41  38  89  CALM    29.79R

$$

ORZ502-503-210510-
BLUE MOUNTAINS

CITY            SKY/WX      TMP DP  RH  WIND    PRES   REMARKS
MEACHAM         MOCLDY      36  34  92  CALM    29.76S
#BATTLE MTN DOT N/A         36  35  96  SW2     N/A
#GRANITE        N/A         33  25  72  CALM    29.71S
#GREENHORN 9SW  N/A         41  36  82  CALM    25.97S
#HEPPNER 15SE   N/A         35  33  92  S2      29.69R
#LADD CYN SMT   N/A         41  34  76  SW2     N/A
#LADD CREEK ODOTN/A         40  37  89  CALM    N/A
#LONG CREEK HS  N/A         38  36  92  CALM    N/A
#N POWDER DOT   N/A         43  34  70  NE8     N/A
#PIKES PEAK     N/A         42  37  82  N9      27.99S
#TOLLGATE       N/A         35  34  96  CALM    29.64S
#TROY SCHOOL    N/A         46  43  89  CALM    29.63R
#UKIAH          N/A         36  34  92  CALM    29.67R
#WESTON 4E      N/A         42  39  89  SE1     29.75R
$$

ORZ505-210510-
JOHN DAY BASIN

CITY            SKY/WX      TMP DP  RH  WIND    PRES   REMARKS
JOHN DAY        MOCLDY      46  34  63  CALM    29.76S
#JOHN DAY KJDY  N/A         48  N/A N/A CALM    28.71R
#ANTELOPE 9ESE  N/A         50  37  61  SW1     N/A
#DAYVILLE SCHOOLN/A         50  31  48  W3      29.75R
#MITCHELL       N/A         44  35  70  CALM    29.96R
#MITCHELL 8NW   N/A         44  32  62  CALM    29.82R
#MONUMENT HS    N/A         48  36  63  CALM    29.73R
#MT. VERNON 5SE N/A         43  32  65  CALM    29.71R
#SPRAY SCHOOL   N/A         50  N/A N/A CALM    N/A
$$

ORZ506-210510-
OCHOCO AND JOHN DAY HIGHLANDS

CITY            SKY/WX      TMP DP  RH  WIND    PRES   REMARKS
#HORSE RIDGE DO N/A         39  31  73  W6      N/A
#PAULINA ODOT   N/A         43  31  62  W2      N/A
#PINE MTN OBS   N/A         32  29  89  CALM    N/A
#SENECA 9NW     N/A         35  29  78  CALM    29.72S
$$

ORZ049-210510-
GRANDE RONDE VALLEY

CITY            SKY/WX      TMP DP  RH  WIND    PRES   REMARKS
LA GRANDE       CLOUDY      43  40  89  CALM    29.79R
#COVE           N/A         43  41  93  CALM    29.82S
#COVE SCHOOL    N/A         42  38  86  CALM    29.81S
#COVE 6NW       N/A         45  38  76  CALM    29.78S
#ELGIN 3N       N/A         40  37  89  CALM    30.19S
#ELGIN 1E       N/A         43  38  82  CALM    N/A
#IMBLER SCHOOL  N/A         41  38  89  CALM    29.77R
#ISLAND CITY 4N N/A         49  48  96  CALM    29.85R
#LA GRANDE-LEFFEN/A         43  39  86  W5      30.19S
#UNION 1S       N/A         41  37  86  CALM    29.79R
$$

ORZ050-210510-
WALLOWA COUNTY

CITY            SKY/WX      TMP DP  RH  WIND    PRES   REMARKS
JOSEPH AIRPORT  CLOUDY      41  36  82  CALM    29.78S
#ENTERPRISE HS  N/A         41  36  82  CALM    29.67R
#IMNAHA SCHOOL  N/A         48  38  68  CALM    29.78R
#IMNAHA 10S     N/A         45  35  68  SW2     29.78R
#JOSEPH         N/A         40  37  89  CALM    30.01R
#JOSEPH 3N      N/A         39  31  73  CALM    29.82R
#JOSEPH 3W      N/A         35  35  100 CALM    30.16R
#LOSTINE        N/A         39  36  89  CALM    29.61R
#LOSTINE 3SE    N/A         40  36  85  CALM    29.82R
#MT HOWARD 8000 N/A         26  23  88  CALM    29.74F
#PROMISE 1S     N/A         39  36  89  S6      29.89R
#WALLOWA LAKE   N/A         37  36  96  CALM    29.80R
#WALLOWA SCHOOL N/A         41  38  89  CALM    29.77R



$$



USA.gov is the U.S. government's official web portal to all federal, state and local government web resources and services.